📊 Raw Sensor Data
Showing records 39576 to 39600 of 84,948 total
| ID | Distance (ft) | Battery V | Battery A | Int Temp (°F) | Int Humid (%) | Ext Temp (°F) | Solar V | RSSI | SNR | Time Stamp |
|---|---|---|---|---|---|---|---|---|---|---|
| 45385 | 15.0 | 3.85 | -5 | 53 | 45 | 54 | 0.00 | -69 | 8 | 07/05/2025 12:30 AM |
| 45384 | 15.0 | 3.66 | -5 | 54 | 45 | 54 | 0.00 | -68 | 9 | 07/05/2025 12:15 AM |
| 45383 | 15.0 | 3.66 | -5 | 54 | 45 | 55 | 0.00 | -69 | 8 | 07/05/2025 12:00 AM |
| 45382 | 15.0 | 3.66 | -5 | 55 | 45 | 56 | 0.00 | -68 | 8 | 07/04/2025 11:45 PM |
| 45381 | 15.0 | 3.66 | -5 | 55 | 45 | 56 | 0.00 | -69 | 9 | 07/04/2025 11:30 PM |
| 45380 | 15.0 | 3.67 | -5 | 56 | 45 | 56 | 0.00 | -69 | 9 | 07/04/2025 11:15 PM |
| 45379 | 15.0 | 3.85 | -5 | 56 | 46 | 57 | 0.00 | -68 | 9 | 07/04/2025 11:00 PM |
| 45378 | 15.0 | 3.85 | -5 | 57 | 46 | 58 | 0.00 | -69 | 9 | 07/04/2025 10:45 PM |
| 45377 | 15.0 | 3.66 | -5 | 58 | 46 | 59 | 0.00 | -67 | 9 | 07/04/2025 10:30 PM |
| 45376 | 15.0 | 3.66 | -5 | 58 | 47 | 59 | 0.00 | -69 | 9 | 07/04/2025 10:15 PM |
| 45375 | 15.0 | 3.66 | -5 | 59 | 48 | 59 | 0.00 | -68 | 8 | 07/04/2025 09:45 PM |
| 45374 | 15.0 | 3.66 | -5 | 60 | 50 | 60 | 0.00 | -68 | 8 | 07/04/2025 09:30 PM |
| 45373 | 15.0 | 3.67 | -5 | 61 | 51 | 60 | 0.00 | -70 | 9 | 07/04/2025 09:15 PM |
| 45372 | 15.0 | 3.66 | -5 | 63 | 52 | 62 | 0.00 | -73 | 8 | 07/04/2025 09:00 PM |
| 45371 | 15.0 | 3.85 | -5 | 65 | 54 | 64 | 1.20 | -77 | 7 | 07/04/2025 08:45 PM |
| 45370 | 15.1 | 3.64 | -8 | 69 | 53 | 65 | 3.40 | -76 | 9 | 07/04/2025 08:30 PM |
| 45369 | 15.1 | 3.89 | 0 | 73 | 52 | 69 | 4.50 | -75 | 8 | 07/04/2025 08:15 PM |
| 45368 | 15.1 | 3.91 | 0 | 76 | 52 | 72 | 4.60 | -75 | 8 | 07/04/2025 08:00 PM |
| 45367 | 15.1 | 3.93 | 6 | 78 | 51 | 72 | 4.50 | -78 | 8 | 07/04/2025 07:45 PM |
| 45366 | 15.2 | 3.96 | 9 | 80 | 51 | 73 | 4.50 | -75 | 8 | 07/04/2025 07:30 PM |
| 45365 | 15.2 | 3.98 | 0 | 83 | 50 | 75 | 4.60 | -76 | 8 | 07/04/2025 07:15 PM |
| 45364 | 15.2 | 3.89 | 0 | 84 | 50 | 78 | 4.50 | -78 | 8 | 07/04/2025 07:00 PM |
| 45363 | 15.2 | 3.85 | 0 | 85 | 50 | 78 | 5.10 | -76 | 8 | 07/04/2025 06:45 PM |
| 45362 | 15.2 | 3.85 | 0 | 86 | 50 | 78 | 5.10 | -74 | 7 | 07/04/2025 06:30 PM |
| 45361 | 15.2 | 3.85 | 0 | 87 | 49 | 79 | 5.10 | -75 | 8 | 07/04/2025 06:15 PM |